Location: Most
(50.5133°N, 13.6207°E)
Time: 01:47:31
(UTC+02:00)

ISS - Pass Details

Date: 22 September 2021
Orbit: 417 x 423 km, 51.6° (Epoch: 22 October)

Event Time Altitude Azimuth Distance (km) Brightness Sun altitude
Rises 20:51:08 0° 263° (W) 2,361 1.1 -17.5°
Reaches altitude 10° 20:53:14 10° 264° (W) 1,500 0.0 -17.8°
Maximum altitude 20:56:36 77° 352° (N) 435 -3.7 -18.3°
Enters shadow 20:57:14 54° 63° (ENE) 515 -3.6 -18.4°
